Vertical_Velocity
-2 -4 -3 -2 -5 -4 -3 -1 -3 -4 -1 -1 -2 -2 -0 -2 -4 2 0 0 -1 1 23 -5 -0 9 -6 -0 4 2 0 -0 0 1 0 3 3 1 1 2 -0 -2 1 2 -1 -0 0
-1 -2 -3 -2 -3 -5 -3 -4 -2 -3 -2 0 -1 -4 1 -0 4 -1 -4 8 -3 5 -5 5 14 11 13 6 2 -2 2 2 3 3 4 8 2 -4 -0 -0 -5 3 -2 1 -1 -0 0
-2 -2 -1 -3 -2 -2 -3 -4 -2 -3 -4 -3 -1 1 -1 0 3 3 3 -2 0 -1 4 -4 5 25 15 2 1 5 4 5 3 5 4 6 1 -2 3 0 -0 2 -2 1 -1 1 1
-3 -2 -2 -1 -3 -2 -0 -5 -2 -1 -5 -2 -4 -0 -2 -0 -3 2 -1 -11 7 3 41 33 9 -2 -2 -0 3 5 6 3 4 2 3 0 1 -2 0 6 -0 -3 -1 1 1 1 1
-2 -1 -3 -2 -3 -2 -3 -1 -3 -1 -2 -1 -4 -1 0 -5 -4 -0 -6 1 2 8 -3 3 3 2 -1 -0 4 3 9 7 6 3 1 1 2 2 0 1 -3 -2 1 -0 1 1 0
0 -1 -3 -3 -2 -2 -1 -3 -1 -4 -2 1 -4 -1 -2 0 -2 -1 -3 -0 5 5 3 -0 0 -0 3 0 5 6 8 5 8 3 1 0 1 -1 -1 -2 2 3 -3 2 0 2 0
-1 2 -2 -3 -3 1 -0 -1 -2 -1 -3 -3 -2 -3 -0 0 3 -6 -0 -1 1 0 2 3 -4 -5 -1 5 2 1 8 6 4 3 7 1 3 4 -2 0 5 2 -0 0 3 -2 -1
-0 1 2 -2 -1 -3 -1 -0 1 0 0 -0 -1 -3 -0 -0 1 1 -1 2 0 3 -2 1 1 -4 3 3 3 3 2 2 2 3 13 -1 -0 6 3 1 -1 -3 1 -2 0 -1 -2
-2 -1 -0 2 -2 -0 -2 -2 -1 -1 -0 -2 -1 -1 -5 -4 -1 -4 1 -0 1 -1 1 -2 2 -0 1 5 7 1 6 8 5 5 1 -1 2 1 1 -1 -2 -2 -2 3 -1 -3 -3
0 -2 0 2 1 -1 -3 -1 -1 -0 1 -1 2 -3 -1 1 -1 3 0 -3 -1 4 -1 1 1 1 -2 -1 5 3 5 4 1 2 4 -1 -3 1 -1 -1 -2 -3 -0 0 -2 -1 -8
1 -0 -2 0 2 -0 -1 -2 0 -1 -0 1 -1 4 1 -1 -2 -1 -1 -0 0 5 -2 2 -1 -1 -2 -3 -1 -1 3 5 6 3 -1 3 1 -4 -3 1 -1 3 -0 0 -2 -1 -4
-2 -1 1 -1 1 1 -0 -1 -3 2 0 1 2 -0 3 3 -2 2 0 0 0 2 -0 5 4 -0 2 -4 1 4 3 6 4 1 2 -1 1 -3 0 -1 0 -0 -0 -1 -1 -3 -7
-2 -1 1 0 -0 1 -0 -0 -1 -3 1 -0 2 3 1 2 3 -1 5 -3 1 3 -2 -0 -0 5 -3 5 2 -0 4 4 2 0 -0 -1 -2 -3 -1 -1 0 -0 1 -2 -4 -2 -2
-4 1 -0 1 -1 1 1 -0 -0 -2 -3 -1 -0 1 3 1 3 3 -4 -4 -2 1 -1 1 2 -2 3 1 0 2 4 6 4 -0 0 1 0 1 2 1 1 1 1 2 -3 -0 -8
-1 1 1 -1 1 0 2 -1 -0 -0 -1 -3 -0 -2 0 2 2 3 2 1 -0 0 0 0 -6 -2 -7 -3 6 2 2 2 2 2 2 0 0 0 0 1 1 1 1 -1 -3 -0 -7
2 -2 -1 1 -0 1 1 2 -0 -1 -1 -0 -1 1 0 -1 0 1 2 -0 0 0 1 1 2 2 0 -0 1 2 2 2 2 1 1 1 1 1 -1 -0 -0 -1 -1 -3 0 -10 -7
-3 1 -1 -1 -0 -0 0 2 2 1 -1 -1 -3 -1 -1 -0 1 -1 -1 4 6 2 -1 -0 0 -0 1 1 -0 -1 -0 1 1 0 0 -0 1 0 -3 -1 -2 -2 -0 -0 -1 -0 -3
-1 -0 -1 1 3 -4 1 1 -2 0 0 -4 1 -2 0 -1 -1 -2 0 -1 -3 -0 2 1 0 -1 -1 -1 -1 -1 -1 -1 -2 -3 -2 -3 -3 -2 -1 -2 -0 0 1 -2 -2 -5 -2
-1 2 -3 -2 0 5 -3 1 0 -4 1 0 -2 -2 1 -0 0 -0 -2 -1 0 2 1 -1 -1 -0 2 2 1 -0 -1 -0 -1 -1 -1 -0 0 -2 -1 -1 -0 0 -1 1 -1 -2 8
-1 1 1 -2 -3 -1 7 -1 -1 -1 -5 2 -2 1 -0 1 -1 1 1 3 2 -0 -0 -0 1 1 2 2 -0 -1 -2 -2 -1 -0 -0 0 2 1 -0 1 1 1 0 1 -2 -2 3
1 -1 1 0 0 -2 -4 3 5 2 3 -4 0 0 -2 -1 -1 -1 -1 -1 1 -0 1 2 1 1 1 -1 -1 -2 -1 -0 1 1 0 1 2 0 -2 -1 -0 -0 2 2 -3 7 -8
-2 -0 1 3 0 1 2 -3 0 -0 2 2 -2 0 2 0 -1 -4 -4 -1 -3 -1 1 -1 -2 -1 -3 -3 -2 -4 -2 -0 0 -1 1 0 1 -2 1 -5 -5 2 -2 -3 -2 6 0
0 -0 -2 -1 -1 1 -1 -3 -3 0 0 0 3 -2 -3 -0 1 0 2 -0 -2 -2 -1 -1 1 2 3 0 0 -2 -3 -4 -2 -3 -4 -4 -5 -3 0 -0 -7 -0 -1 1 -0 1 -2
1 -0 1 0 -2 -2 1 1 -2 -3 -5 0 1 3 3 1 -1 -2 -2 0 -1 -2 -2 -3 -2 -2 -2 -3 -3 0 0 0 0 -0 -1 2 -0 -1 2 -2 -4 3 3 -1 -2 3 -0
-1 1 2 -0 3 -0 -1 2 1 -1 -1 1 -5 -4 0 2 -1 0 1 -2 -2 -0 0 0 1 0 -1 -1 -0 -4 -1 -2 1 1 1 -1 -3 -9 -8 -2 4 1 8 -1 -5 -4 4
-1 0 -0 -1 1 -1 2 0 0 1 1 -1 1 2 -2 -2 3 0 -2 -2 -0 -2 -1 -2 -0 -1 -1 -2 -3 -1 -1 3 1 5 3 -0 -1 0 -5 -12 -6 -1 1 -1 -5 -18 17
-2 1 1 -2 1 1 -0 0 3 -2 -2 -1 -3 -2 -3 -1 -0 -1 1 1 -0 -0 -0 1 -1 -2 -0 -3 -2 -1 -6 5 -8 -4 4 0 -2 -0 0 -13 -2 -4 4 -2 0 -11 -1
-0 -2 0 1 -3 2 -1 -1 -3 1 1 -0 0 -0 1 1 -0 -2 -2 -2 0 -1 -1 11 -0 0 -3 -2 2 1 0 -5 1 0 -5 1 -4 4 -1 -4 -12 10 2 6 1 -4 -5
0 -2 -3 -1 2 -2 2 2 -1 -2 -1 0 -2 1 2 -1 0 1 -3 -2 -1 -3 -3 6 -5 -1 1 -1 -0 -6 -1 -1 5 -1 1 -4 4 3 -5 -7 1 -0 1 -2 -1 -2 -4
Height
5747 5740 5732 5724 5715 5705 5695 5685 5676 5667 5659 5651 5644 5636 5630 5629 5629 5628 5628 5628 5628 5627 5623 5628 5634 5652 5665 5676 5687 5699 5711 5726 5740 5754 5766 5778 5789 5796 5804 5811 5819 5822 5828 5831 5834 5836 5839
5749 5740 5733 5725 5716 5707 5697 5688 5678 5669 5660 5652 5645 5638 5634 5632 5629 5630 5630 5629 5631 5629 5629 5631 5640 5654 5658 5669 5679 5695 5708 5722 5735 5749 5762 5774 5784 5791 5799 5808 5813 5820 5823 5827 5829 5832 5835
5751 5743 5734 5726 5719 5710 5700 5692 5682 5674 5665 5656 5647 5641 5637 5635 5634 5634 5633 5633 5635 5636 5639 5639 5644 5654 5657 5668 5679 5691 5705 5719 5732 5746 5758 5770 5780 5789 5797 5804 5811 5817 5820 5823 5826 5829 5831
5753 5745 5737 5729 5721 5713 5705 5696 5687 5678 5670 5661 5654 5645 5643 5641 5640 5638 5639 5640 5642 5641 5644 5640 5649 5655 5662 5672 5681 5691 5703 5717 5730 5744 5756 5767 5777 5787 5795 5803 5809 5813 5816 5819 5823 5825 5828
5755 5747 5740 5732 5725 5716 5709 5701 5693 5685 5676 5669 5661 5653 5648 5649 5647 5646 5646 5649 5649 5651 5651 5652 5657 5663 5672 5678 5685 5694 5706 5718 5730 5743 5754 5766 5776 5786 5793 5799 5805 5809 5813 5816 5819 5822 5824
5758 5750 5742 5735 5729 5721 5713 5706 5700 5692 5684 5676 5669 5662 5658 5656 5656 5655 5655 5657 5659 5661 5662 5663 5668 5674 5678 5683 5691 5699 5709 5721 5732 5743 5754 5765 5774 5783 5790 5797 5804 5808 5812 5815 5816 5819 5820
5761 5753 5746 5739 5732 5726 5719 5712 5706 5699 5692 5684 5677 5671 5667 5663 5662 5664 5664 5664 5667 5668 5669 5673 5676 5680 5683 5688 5697 5706 5715 5723 5733 5745 5756 5765 5775 5783 5789 5796 5802 5806 5809 5812 5814 5816 5818
5763 5756 5749 5743 5737 5730 5724 5718 5712 5706 5700 5694 5687 5680 5675 5673 5672 5670 5670 5672 5672 5674 5676 5678 5681 5686 5690 5696 5703 5711 5720 5729 5736 5747 5757 5766 5774 5783 5789 5794 5800 5804 5807 5809 5812 5814 5815
5767 5759 5752 5746 5741 5735 5729 5723 5718 5712 5707 5703 5697 5691 5686 5682 5679 5679 5677 5676 5676 5678 5681 5684 5687 5692 5699 5703 5711 5717 5725 5732 5740 5749 5758 5767 5775 5782 5788 5793 5798 5802 5804 5807 5810 5810 5812
5769 5763 5756 5749 5744 5739 5734 5729 5723 5718 5714 5710 5705 5701 5697 5694 5691 5688 5686 5684 5685 5686 5689 5693 5695 5699 5705 5708 5715 5723 5729 5737 5744 5752 5760 5767 5774 5781 5786 5792 5796 5799 5802 5804 5806 5807 5808
5772 5766 5760 5753 5747 5742 5737 5733 5728 5723 5719 5716 5712 5709 5704 5701 5698 5695 5694 5693 5693 5695 5697 5701 5703 5707 5710 5718 5723 5729 5734 5741 5748 5755 5763 5770 5775 5781 5786 5790 5794 5797 5799 5800 5802 5802 5803
5774 5769 5764 5756 5750 5746 5741 5737 5733 5728 5724 5721 5717 5715 5712 5709 5704 5702 5699 5699 5701 5705 5703 5707 5711 5714 5719 5724 5730 5735 5740 5746 5751 5758 5763 5770 5776 5781 5785 5788 5791 5793 5795 5796 5797 5797 5798
5776 5771 5767 5761 5754 5749 5745 5741 5737 5733 5729 5725 5722 5719 5718 5716 5713 5709 5707 5708 5709 5709 5713 5715 5717 5721 5725 5730 5735 5740 5745 5750 5756 5762 5766 5771 5775 5779 5783 5786 5788 5790 5791 5792 5793 5792 5792
5778 5774 5769 5764 5760 5753 5749 5745 5742 5738 5735 5730 5727 5724 5722 5720 5719 5717 5715 5714 5715 5717 5719 5720 5725 5728 5732 5735 5740 5745 5749 5753 5757 5762 5767 5771 5775 5777 5780 5782 5784 5785 5786 5786 5785 5785 5786
5779 5775 5772 5767 5763 5758 5753 5750 5746 5742 5739 5736 5733 5729 5727 5725 5724 5724 5724 5724 5726 5726 5728 5730 5733 5736 5737 5741 5745 5748 5751 5754 5758 5762 5766 5769 5772 5775 5777 5778 5780 5781 5782 5782 5780 5780 5778
5779 5776 5773 5770 5766 5762 5758 5754 5751 5746 5743 5741 5738 5735 5733 5732 5730 5729 5730 5731 5732 5733 5734 5736 5738 5740 5743 5746 5749 5750 5753 5756 5759 5762 5764 5768 5770 5772 5773 5775 5776 5776 5777 5777 5775 5773 5771
5778 5777 5774 5771 5768 5765 5761 5758 5755 5752 5747 5745 5743 5741 5738 5737 5736 5736 5735 5735 5737 5738 5740 5741 5742 5744 5746 5748 5751 5753 5756 5758 5760 5762 5764 5766 5768 5771 5771 5772 5771 5771 5770 5770 5768 5767 5764
5779 5776 5774 5771 5767 5765 5764 5761 5758 5755 5752 5749 5747 5745 5743 5742 5742 5740 5739 5740 5740 5741 5741 5742 5744 5746 5748 5750 5752 5754 5756 5758 5760 5762 5763 5764 5764 5765 5766 5765 5765 5764 5763 5761 5759 5759 5757
5777 5775 5774 5773 5771 5766 5763 5764 5762 5758 5756 5753 5751 5749 5747 5746 5745 5744 5744 5743 5742 5743 5744 5745 5746 5747 5748 5750 5752 5753 5755 5756 5757 5758 5759 5759 5759 5759 5759 5760 5758 5757 5755 5753 5751 5750 5749
5775 5773 5772 5773 5770 5769 5765 5762 5763 5761 5759 5757 5754 5753 5751 5749 5747 5747 5746 5747 5747 5747 5747 5747 5747 5747 5748 5748 5749 5751 5751 5752 5752 5753 5753 5753 5753 5753 5753 5752 5751 5750 5748 5747 5745 5745 5742
5773 5771 5769 5769 5769 5768 5767 5763 5759 5760 5759 5759 5757 5755 5754 5752 5750 5749 5748 5747 5747 5747 5747 5748 5748 5749 5749 5749 5749 5749 5750 5750 5750 5749 5748 5748 5748 5747 5745 5744 5743 5742 5741 5739 5737 5738 5729
5770 5768 5765 5764 5764 5765 5763 5763 5760 5756 5757 5757 5757 5756 5753 5752 5752 5751 5750 5749 5749 5748 5747 5746 5746 5746 5746 5746 5746 5746 5746 5746 5746 5746 5745 5744 5744 5741 5740 5738 5735 5734 5734 5729 5727 5727 5721
5764 5763 5761 5759 5759 5759 5759 5759 5758 5756 5755 5754 5754 5753 5754 5753 5750 5749 5749 5748 5748 5748 5748 5747 5747 5747 5746 5745 5743 5743 5742 5742 5741 5740 5738 5737 5736 5734 5733 5731 5727 5726 5726 5722 5719 5716 5713
5757 5757 5756 5755 5753 5752 5753 5753 5753 5754 5752 5749 5748 5749 5749 5750 5750 5750 5749 5748 5746 5745 5744 5744 5744 5743 5743 5741 5741 5741 5739 5737 5735 5733 5732 5730 5727 5724 5722 5721 5716 5716 5714 5713 5710 5707 5703
5747 5748 5748 5748 5746 5744 5744 5745 5746 5746 5746 5747 5745 5744 5743 5744 5743 5743 5742 5742 5743 5741 5741 5740 5738 5737 5735 5735 5734 5733 5732 5731 5730 5728 5726 5723 5719 5715 5712 5710 5708 5704 5702 5700 5696 5694 5689
5736 5737 5738 5739 5739 5739 5737 5736 5736 5738 5739 5740 5740 5739 5738 5737 5738 5737 5735 5735 5735 5734 5735 5734 5732 5730 5728 5726 5725 5723 5722 5721 5718 5718 5717 5714 5710 5706 5701 5697 5693 5690 5688 5684 5680 5678 5674
5723 5725 5727 5728 5729 5728 5729 5729 5729 5728 5729 5729 5730 5731 5731 5730 5729 5729 5729 5727 5725 5724 5723 5722 5722 5721 5720 5718 5716 5714 5712 5711 5707 5705 5704 5700 5697 5693 5688 5683 5682 5678 5676 5671 5668 5665 5656
5711 5712 5713 5715 5717 5718 5718 5718 5719 5719 5719 5719 5720 5720 5720 5720 5720 5720 5719 5718 5717 5715 5713 5713 5711 5709 5707 5706 5704 5702 5699 5697 5695 5692 5689 5686 5683 5679 5675 5671 5669 5665 5661 5656 5650 5644 5639
5697 5699 5700 5700 5701 5704 5705 5705 5706 5707 5707 5708 5707 5706 5707 5707 5708 5708 5707 5706 5706 5704 5703 5701 5699 5696 5694 5693 5690 5687 5685 5682 5681 5678 5676 5674 5670 5666 5662 5657 5653 5648 5643 5635 5631 5626 5621